[[{"header":{"parameterUnit":"m.s-1","parameterCategory":1,"la1":30.2991,"la2":30.254,"lo1":-89.0895,"lo2":-89.0444,"dy":0.0017,"dx":0.0017,"nx":28,"ny":28,"refTime":"2023-10-28T21:00:00:Z","depth":0,"parameterNumber":2,"parameterNumberName":"U-component_of_WINDS"},"data":[0,0,0,0,0,0,0,0,0,0,0,0,0,0,0,0,0,0,0,0,0,0,0,0,0,0,0,0,0,0,0,0,0,0,0,0,0,0,0,0,0,0,0,0,0,0,0,0,0,0,0,0,0,0,0,0,0,0,-1.1699,-1.17,0,-1.1813,-1.1814,-1.1815,-1.1805,-1.1804,-1.1802,-1.18,-1.1918,-1.1923,-1.1928,0,0,0,0,0,0,0,0,0,0,0,0,0,-1.1473,-1.1478,-1.1698,-1.17,-1.1701,-1.1812,-1.1814,-1.1816,-1.1806,-1.1804,-1.1801,-1.1799,-1.1917,-1.1922,-1.1928,0,0,0,0,0,0,0,0,0,0,0,0,0,-1.1578,-1.1479,-1.1698,-1.171,-1.1712,-1.1812,-1.1814,-1.1816,-1.1806,-1.1804,-1.1801,-1.1798,-1.1915,-1.1922,-1.1929,-1.2026,0,0,-1.1951,-1.1954,0,0,0,0,0,0,0,0,-1.1572,-1.1586,-1.1707,-1.1709,-1.1712,-1.1792,-1.1778,-1.1886,-1.1807,-1.177,-1.18,-1.1797,-1.1879,-1.1889,-1.1916,-1.2031,-1.2036,-1.1951,-1.1956,-1.1959,-1.1961,0,0,0,0,0,0,0,-1.1565,-1.1581,-1.1744,-1.1708,-1.1712,-1.171,-1.1722,-1.1798,-1.1838,-1.1773,-1.1773,-1.1787,-1.1879,-1.1909,-1.1918,-1.2038,-1.1951,-1.1958,-1.1962,-1.1965,-1.2239,-1.2242,0,0,0,0,0,0,-1.1554,-1.1575,-1.174,-1.1747,-1.1634,-1.1716,-1.1729,-1.1769,-1.1837,-1.1845,-1.1789,-1.1786,-1.1898,-1.191,-1.1923,-1.2041,-1.1959,-1.1966,-1.197,-1.2236,-1.2239,-1.2243,0,0,0,0,0,0,-1.155,-1.1569,-1.1735,-1.1661,-1.1682,-1.1723,-1.1767,-1.1773,-1.1802,-1.1848,-1.1856,-1.1811,-1.1896,-1.1913,-1.2,-1.2044,-1.1969,-1.1975,-1.2232,-1.2237,-1.2241,-1.2277,0,0,0,0,0,0,-1.1543,-1.1568,-1.1604,-1.1662,-1.1686,-1.1811,-1.177,-1.1777,-1.1814,-1.1811,-1.1872,-1.1879,-1.1896,-1.1989,-1.2007,-1.2053,-1.1981,-1.2228,-1.2234,-1.224,-1.2272,-1.2282,-1.2291,0,0,0,0,0,-1.1535,-1.161,-1.1606,-1.1626,-1.1733,-1.1813,-1.1827,-1.1844,-1.1818,-1.1855,-1.1885,-1.1877,-1.2037,-1.1998,-1.2018,-1.2067,-1.2226,-1.2233,-1.2239,-1.2268,-1.228,-1.229,0,0,0,0,0,0,-1.1557,-1.1618,-1.1614,-1.171,-1.1756,-1.1811,-1.1859,-1.1857,-1.1912,-1.1907,-1.1926,-1.194,-1.2028,-1.2056,-1.2013,-1.2164,-1.2128,-1.2139,-1.2143,-1.2155,-1.2164,-1.2155,-1.1987,0,0,0,0,0,-1.1573,-1.1633,-1.1683,-1.1762,-1.1786,-1.1819,-1.1854,-1.1863,-1.1913,-1.1932,-1.1969,-1.2017,-1.2078,-1.2118,-1.2177,-1.2276,-1.2289,-1.2319,-1.2328,-1.2336,-1.2345,-1.24,-1.2414,-1.2265,-1.2265,-1.2264,0,0,-1.1606,-1.1647,-1.1684,-1.1768,-1.1805,-1.1867,-1.1835,-1.1902,-1.1949,-1.1943,-1.2028,-1.2056,-1.2111,-1.2205,-1.2248,-1.2231,-1.239,-1.2344,-1.235,-1.2356,-1.2409,-1.2423,-1.2435,-1.2269,-1.2268,-1.2268,0,0,-1.1699,-1.1736,-1.1806,-1.1844,-1.1901,-1.1922,-1.1939,-1.1995,-1.2013,-1.2099,-1.2096,-1.2151,-1.2256,-1.2295,-1.2329,-1.2438,-1.2432,-1.2456,-1.2505,-1.2559,-1.2571,-1.2581,-1.262,-1.2634,-1.2465,-1.2465,-1.2466,0,-1.1734,-1.1827,-1.1843,-1.1911,-1.1948,-1.1945,-1.2017,-1.2053,-1.2126,-1.2152,-1.2132,-1.2263,-1.23,-1.2404,-1.243,-1.2458,-1.2478,-1.245,-1.2567,-1.2578,-1.2588,-1.2626,-1.2641,-1.2468,-1.2468,-1.2467,-1.2467,0,-1.1867,-1.1931,-1.1982,-1.2052,-1.2095,-1.2164,-1.2192,-1.2233,-1.2239,-1.2262,-1.235,-1.2394,-1.2462,-1.2487,-1.2493,-1.2591,-1.2579,-1.2563,-1.2527,-1.2605,-1.2641,-1.2655,-1.2472,-1.2471,-1.247,-1.2469,0,0,-1.1977,-1.2055,-1.2073,-1.2105,-1.2168,-1.2218,-1.2288,-1.2354,-1.2389,-1.244,-1.2499,-1.2588,-1.2573,-1.2612,-1.2622,-1.2669,-1.2753,-1.2648,-1.2649,-1.2666,-1.2865,-1.2877,-1.2893,-1.275,-1.2752,-1.2755,-1.286,0,-1.2076,-1.2199,-1.2215,-1.2324,-1.2385,-1.2383,-1.2444,-1.2489,-1.2513,-1.2568,-1.2594,-1.2657,-1.2633,-1.2656,-1.2703,-1.2733,-1.2793,-1.2725,-1.2805,-1.2808,-1.2792,-1.2912,-1.2925,-1.3022,-1.2874,-1.2877,-1.2878,0,-1.2209,-1.2263,-1.2377,-1.2432,-1.2458,-1.2512,-1.2574,-1.2626,-1.2678,-1.2692,-1.2735,-1.274,-1.2812,-1.2773,-1.2873,-1.2827,-1.2861,-1.288,-1.2885,-1.2893,-1.2848,-1.2924,-1.3054,-1.3068,-1.29,-1.2899,-1.2897,0,-1.2278,-1.2379,-1.2461,-1.2489,-1.2554,-1.2592,-1.2621,-1.267,-1.2709,-1.2763,-1.2789,-1.2851,-1.2885,-1.2933,-1.2955,-1.2924,-1.3054,-1.3016,-1.3069,-1.3068,-1.3097,-1.3095,-1.3234,-1.3117,-1.3117,-1.3117,-1.3117,0,-1.2387,-1.2458,-1.2493,-1.2544,-1.2623,-1.2641,-1.2719,-1.2747,-1.2791,-1.2847,-1.2849,-1.2902,-1.2927,-1.2984,-1.3001,-1.3082,-1.3097,-1.3111,-1.3115,-1.3111,-1.311,-1.3134,-1.3128,-1.3121,-1.312,-1.3119,-1.3119,0,-1.2478,-1.2505,-1.2594,-1.2649,-1.2664,-1.272,-1.2767,-1.2816,-1.284,-1.2911,-1.2929,-1.2966,-1.3033,-1.3059,-1.3141,-1.3152,-1.3246,-1.3244,-1.3228,-1.323,-1.3281,-1.3276,-1.3441,-1.3464,-1.3332,-1.3333,-1.3334,0,-1.2547,-1.2601,-1.2661,-1.2699,-1.2729,-1.279,-1.2829,-1.285,-1.2891,-1.2954,-1.2996,-1.3062,-1.3117,-1.3224,-1.3259,-1.3321,-1.3322,-1.3375,-1.3331,-1.3326,-1.3323,-1.332,-1.3326,-1.3383,-1.3385,-1.3386,-1.3387,0,-1.2666,-1.2676,-1.2733,-1.2794,-1.2841,-1.2891,-1.2939,-1.297,-1.2998,-1.3044,-1.3113,-1.3155,-1.3239,-1.3305,-1.337,-1.34,-1.3399,-1.34,-1.3416,-1.3413,-1.3402,-1.3409,-1.3251,-1.3397,-1.3396,-1.3395,-1.3394,-1.3394,-1.2748,-1.2796,-1.2846,-1.291,-1.2948,-1.2993,-1.3042,-1.3072,-1.3129,-1.3198,-1.3207,-1.3281,-1.3331,-1.3417,-1.3451,-1.3509,-1.3495,-1.3517,-1.3523,-1.3528,-1.3532,-1.3392,-1.352,-1.352,-1.352,-1.352,-1.352,0,-1.2868,-1.29,-1.2958,-1.3025,-1.3075,-1.3069,-1.3122,-1.3164,-1.3229,-1.3275,-1.3329,-1.3408,-1.3472,-1.3512,-1.3577,-1.3616,-1.3617,-1.3632,-1.363,-1.3637,-1.3541,-1.3521,-1.363,-1.363,-1.363,-1.363,-1.363,-1.363,-1.2936,-1.3017,-1.3034,-1.3134,-1.3166,-1.3238,-1.3269,-1.3311,-1.3348,-1.3436,-1.349,-1.3515,-1.3559,-1.3627,-1.3686,-1.3696,-1.372,-1.3737,-1.3746,-1.3655,-1.3644,-1.3633,-1.3614,-1.3742,-1.3742,-1.3838,-1.3839,-1.3839]},{"header":{"parameterUnit":"m.s-1","parameterCategory":1,"la1":30.2991,"la2":30.254,"lo1":-89.0895,"lo2":-89.0444,"dy":0.0017,"dx":0.0017,"nx":28,"ny":28,"refTime":"2023-10-28T21:00:00:Z","depth":0,"parameterNumber":3,"parameterNumberName":"V-component_of_WINDS"},"data":[0,0,0,0,0,0,0,0,0,0,0,0,0,0,0,0,0,0,0,0,0,0,0,0,0,0,0,0,0,0,0,0,0,0,0,0,0,0,0,0,0,0,0,0,0,0,0,0,0,0,0,0,0,0,0,0,0,0,-0.2421,-0.242,0,-0.233,-0.2329,-0.2328,-0.2275,-0.2274,-0.2274,-0.2274,-0.2184,-0.2182,-0.218,0,0,0,0,0,0,0,0,0,0,0,0,0,-0.255,-0.2548,-0.2421,-0.242,-0.2418,-0.233,-0.2329,-0.2328,-0.2275,-0.2274,-0.2274,-0.2274,-0.2185,-0.2182,-0.218,0,0,0,0,0,0,0,0,0,0,0,0,0,-0.248,-0.2547,-0.2421,-0.2381,-0.2377,-0.2331,-0.2329,-0.2328,-0.2275,-0.2274,-0.2274,-0.2274,-0.2186,-0.2182,-0.2179,-0.2166,0,0,-0.2169,-0.2168,0,0,0,0,0,0,0,0,-0.2484,-0.2475,-0.2388,-0.2384,-0.2379,-0.2313,-0.2342,-0.2274,-0.2275,-0.2314,-0.2274,-0.2274,-0.2228,-0.2221,-0.2205,-0.2162,-0.2158,-0.2169,-0.2167,-0.2166,-0.2165,0,0,0,0,0,0,0,-0.2489,-0.2479,-0.2385,-0.2387,-0.2381,-0.2369,-0.2358,-0.2328,-0.2274,-0.231,-0.2306,-0.2296,-0.2225,-0.2208,-0.2202,-0.2157,-0.2169,-0.2166,-0.2164,-0.2163,-0.21,-0.21,0,0,0,0,0,0,-0.25,-0.2483,-0.2388,-0.2382,-0.2432,-0.2367,-0.2355,-0.2335,-0.2274,-0.2264,-0.2296,-0.2294,-0.2214,-0.2206,-0.2199,-0.218,-0.2166,-0.2163,-0.2161,-0.21,-0.21,-0.2101,0,0,0,0,0,0,-0.2503,-0.2492,-0.2391,-0.2432,-0.2418,-0.2365,-0.2342,-0.2333,-0.2316,-0.2263,-0.2254,-0.2289,-0.2213,-0.2203,-0.2175,-0.2176,-0.2161,-0.2158,-0.21,-0.21,-0.21,-0.2143,0,0,0,0,0,0,-0.2507,-0.2493,-0.2487,-0.2432,-0.2416,-0.2368,-0.2342,-0.2332,-0.231,-0.2306,-0.2254,-0.2245,-0.2212,-0.218,-0.2172,-0.2172,-0.2156,-0.2099,-0.21,-0.21,-0.2141,-0.2144,-0.2148,0,0,0,0,0,-0.2512,-0.2503,-0.2487,-0.2476,-0.2407,-0.2368,-0.2359,-0.2321,-0.2311,-0.2304,-0.2271,-0.2247,-0.2178,-0.2177,-0.2168,-0.2167,-0.2099,-0.21,-0.21,-0.2139,-0.2144,-0.2147,0,0,0,0,0,0,-0.256,-0.2495,-0.2477,-0.245,-0.2415,-0.2359,-0.235,-0.2327,-0.2295,-0.2292,-0.2247,-0.2236,-0.2212,-0.2186,-0.2187,-0.2151,-0.2136,-0.2134,-0.2169,-0.2172,-0.2176,-0.2183,-0.2153,0,0,0,0,0,-0.2568,-0.2541,-0.2486,-0.2467,-0.2451,-0.2404,-0.2385,-0.2359,-0.2321,-0.2307,-0.2271,-0.2236,-0.2207,-0.2188,-0.2158,-0.2137,-0.2125,-0.2132,-0.2135,-0.2138,-0.2137,-0.2125,-0.2128,-0.2103,-0.2103,-0.2103,0,0,-0.2583,-0.2544,-0.253,-0.2476,-0.2446,-0.242,-0.2392,-0.2365,-0.2346,-0.2303,-0.2273,-0.2246,-0.2205,-0.218,-0.2167,-0.2158,-0.2142,-0.2139,-0.2142,-0.2139,-0.2126,-0.2129,-0.2131,-0.2103,-0.2103,-0.2103,0,0,-0.2598,-0.2566,-0.2547,-0.2518,-0.2472,-0.2441,-0.2437,-0.2385,-0.2365,-0.2334,-0.2302,-0.2279,-0.2228,-0.22,-0.2179,-0.2185,-0.2161,-0.2176,-0.2194,-0.2182,-0.2184,-0.2186,-0.2188,-0.219,-0.2176,-0.2176,-0.2176,0,-0.2624,-0.2582,-0.2541,-0.2516,-0.2494,-0.2453,-0.2435,-0.2408,-0.2356,-0.2342,-0.2332,-0.2268,-0.2237,-0.2206,-0.2207,-0.2192,-0.2186,-0.2182,-0.2187,-0.2188,-0.2189,-0.2191,-0.2192,-0.2178,-0.2178,-0.2178,-0.2177,0,-0.2616,-0.2588,-0.2579,-0.2528,-0.2505,-0.2484,-0.244,-0.2421,-0.2397,-0.2367,-0.2338,-0.2299,-0.2261,-0.2251,-0.2228,-0.2217,-0.2213,-0.2196,-0.2179,-0.2194,-0.2195,-0.2196,-0.2181,-0.218,-0.218,-0.2179,0,0,-0.2659,-0.2586,-0.2583,-0.256,-0.2508,-0.2486,-0.2463,-0.2425,-0.241,-0.2376,-0.2356,-0.2315,-0.2299,-0.2276,-0.2248,-0.2238,-0.2246,-0.2223,-0.2221,-0.2229,-0.2233,-0.2246,-0.2248,-0.223,-0.223,-0.223,-0.2236,0,-0.2667,-0.2623,-0.2585,-0.2556,-0.253,-0.2491,-0.2472,-0.2438,-0.241,-0.2384,-0.2354,-0.2325,-0.2306,-0.2292,-0.228,-0.2248,-0.2246,-0.2247,-0.2213,-0.2212,-0.2225,-0.2248,-0.2262,-0.2269,-0.2237,-0.2237,-0.2237,0,-0.2669,-0.2636,-0.2604,-0.2554,-0.2542,-0.2525,-0.2487,-0.2463,-0.2425,-0.2405,-0.2379,-0.2351,-0.2326,-0.2312,-0.2278,-0.2279,-0.2263,-0.2245,-0.2245,-0.224,-0.2226,-0.2245,-0.2271,-0.2272,-0.2237,-0.2237,-0.2237,0,-0.2705,-0.2652,-0.2626,-0.2607,-0.2549,-0.2538,-0.2513,-0.2474,-0.2453,-0.2421,-0.2407,-0.2373,-0.2354,-0.2328,-0.2292,-0.2285,-0.2262,-0.2245,-0.2246,-0.2247,-0.2243,-0.2244,-0.2268,-0.2233,-0.2233,-0.2233,-0.2233,0,-0.2717,-0.27,-0.2641,-0.2625,-0.2604,-0.2562,-0.2543,-0.2514,-0.248,-0.2459,-0.2423,-0.2404,-0.2357,-0.2333,-0.2304,-0.2281,-0.2273,-0.2257,-0.225,-0.226,-0.2263,-0.225,-0.2248,-0.2233,-0.2233,-0.2233,-0.2233,0,-0.2753,-0.2713,-0.2683,-0.263,-0.2616,-0.2603,-0.2558,-0.2542,-0.2512,-0.2485,-0.2477,-0.243,-0.24,-0.2361,-0.2318,-0.2299,-0.2279,-0.2268,-0.2292,-0.2288,-0.2292,-0.2292,-0.2308,-0.2309,-0.2273,-0.2274,-0.2274,0,-0.2764,-0.275,-0.2695,-0.2678,-0.2654,-0.2627,-0.2606,-0.2564,-0.2543,-0.2499,-0.2488,-0.2455,-0.2426,-0.238,-0.2343,-0.231,-0.2298,-0.2306,-0.2293,-0.2304,-0.2299,-0.23,-0.2299,-0.2309,-0.231,-0.231,-0.2311,0,-0.2788,-0.2769,-0.274,-0.2704,-0.268,-0.2649,-0.2618,-0.2606,-0.2557,-0.2537,-0.2505,-0.2482,-0.2439,-0.2407,-0.237,-0.2345,-0.2321,-0.2315,-0.2314,-0.2325,-0.234,-0.2332,-0.2302,-0.2315,-0.2315,-0.2314,-0.2314,-0.2314,-0.2812,-0.2797,-0.2757,-0.2726,-0.2697,-0.2669,-0.2651,-0.2618,-0.2591,-0.2552,-0.2529,-0.2498,-0.246,-0.2408,-0.2385,-0.2361,-0.2351,-0.2349,-0.2349,-0.2349,-0.2353,-0.2343,-0.2354,-0.2354,-0.2353,-0.2353,-0.2353,0,-0.2834,-0.2807,-0.2778,-0.2735,-0.2711,-0.2688,-0.2652,-0.2634,-0.2607,-0.2574,-0.2546,-0.251,-0.2479,-0.2439,-0.2406,-0.2394,-0.2382,-0.2387,-0.2388,-0.2383,-0.2363,-0.2368,-0.2398,-0.2398,-0.2398,-0.2398,-0.2398,-0.2398,-0.2843,-0.2818,-0.2794,-0.2754,-0.2727,-0.2696,-0.2677,-0.2651,-0.2624,-0.2585,-0.2559,-0.2533,-0.2498,-0.2461,-0.2432,-0.2421,-0.2411,-0.242,-0.2406,-0.2388,-0.2384,-0.238,-0.2385,-0.2418,-0.2418,-0.2428,-0.2428,-0.2428]}]]